SAUDICOMSAT 5

Last updated on July 6, 2021, 3:39 p.m. UTC

1 31124U 07012H   21187.09577649  .00000077  00000-0  23800-4 0  9998
2 31124  98.1085 134.2069 0052633  47.0615 313.4984 14.63580683758995
UTC
Height (km)
Latitude
Longitude
Inclination
Orbital Period
UTC large
Height (km)
Speed (km/s)
/
Latitude / Longitude
Inclination (degrees)
Orbital Period (minutes)
Azimuth
Elevation
Range (km)
Doppler Factor
iOS Compass Heading
iOS Angle